RH
24 18 15 14 14 12 20 27 57 86 77 72 83 71 90 93 95 93 83 96 91 82 83 74 75 71 68 70 64 60 67 48 52 79 78 78 81 86 86 84 69 17 12 11 12 11 8 7 7
23 20 15 15 14 11 15 36 32 34 54 68 79 94 66 88 82 88 76 76 75 65 65 82 78 78 84 88 75 62 74 69 44 40 59 79 88 92 94 96 67 21 13 12 13 11 8 7 7
17 16 15 13 12 12 18 31 44 28 24 36 70 79 90 86 87 83 79 86 69 59 47 53 78 82 78 66 59 53 51 58 48 39 60 67 88 90 94 94 50 21 11 13 19 12 10 9 12
16 14 12 13 13 15 23 37 57 54 39 30 44 52 70 70 64 66 66 82 78 68 61 76 78 60 55 65 65 52 62 59 50 79 78 88 91 95 98 82 52 39 10 13 24 16 11 16 17
19 14 15 15 18 29 43 42 50 54 44 48 47 45 64 67 55 58 64 62 61 61 67 72 71 71 62 60 63 67 64 67 83 84 77 80 86 99 99 85 72 49 17 24 29 17 18 27 36
20 18 22 20 24 55 59 45 69 54 38 43 49 52 72 67 89 92 76 69 64 72 72 84 89 86 80 80 86 77 88 96 96 72 88 89 96 97 86 80 75 59 47 33 25 22 23 34 26
20 22 26 28 56 87 92 90 68 64 45 55 60 74 75 83 95 96 91 86 81 82 91 95 96 97 94 90 97 83 97 93 89 85 97 97 97 96 90 81 69 44 23 23 24 24 22 23 33
23 30 60 78 86 82 87 86 70 70 64 61 57 70 70 86 87 92 87 85 91 73 84 95 95 97 94 94 96 96 99 84 93 95 97 97 100 92 70 55 31 14 19 28 18 28 36 43 44
31 96 86 86 93 98 99 92 90 81 69 67 57 52 54 50 76 95 88 69 64 64 72 77 90 98 95 96 96 99 97 94 96 96 96 95 73 55 40 28 31 32 29 30 35 36 46 26 12
72 100 84 95 98 97 88 84 88 84 80 90 83 59 62 71 63 65 90 82 64 63 68 86 96 96 96 97 96 95 95 96 96 94 75 52 49 68 44 44 43 40 40 40 47 57 26 15 15
99 100 96 92 94 86 94 77 88 91 93 79 74 66 68 75 68 64 85 86 67 62 74 78 94 96 94 96 97 97 97 93 97 92 90 83 75 66 50 43 46 54 56 47 52 43 17 14 12
98 98 92 90 91 86 100 99 98 90 84 78 66 59 73 79 80 90 77 91 85 76 78 86 95 97 97 97 96 98 95 90 87 65 71 79 62 59 69 66 71 75 78 76 47 16 11 11 12
97 89 74 81 91 95 100 100 97 87 66 56 52 55 82 74 60 70 81 95 87 79 78 80 85 95 96 97 96 94 86 77 84 86 92 87 82 77 59 31 23 37 35 18 15 11 12 14 16
84 69 78 97 95 96 96 83 83 86 81 92 71 61 85 69 60 75 97 97 95 90 90 91 98 99 96 92 94 97 92 92 93 99 96 88 75 39 20 19 18 14 14 13 14 14 15 16 18
79 97 91 96 98 90 94 73 64 88 76 73 77 97 98 99 97 91 80 76 71 63 67 77 73 66 66 64 59 70 82 85 91 94 91 68 48 23 16 15 14 14 15 18 17 16 17 18 18
84 99 91 91 84 90 88 66 87 76 39 38 55 57 45 61 74 35 26 25 37 52 53 41 41 52 61 60 64 66 70 71 77 84 97 72 63 18 15 15 16 18 18 18 16 17 18 17 16
58 97 88 85 88 97 70 61 90 52 26 22 33 54 21 20 16 18 18 19 25 31 38 46 45 57 68 64 58 56 62 60 60 64 64 79 64 19 15 17 18 18 16 17 18 18 17 18 17
45 86 88 78 95 100 75 52 60 80 36 24 22 25 22 23 21 23 25 29 42 52 39 32 29 36 41 45 44 40 46 59 55 61 73 51 39 21 18 19 18 16 17 18 19 19 21 19 16
63 91 78 73 86 100 86 61 95 77 61 38 24 23 27 28 26 30 44 52 57 52 53 49 39 41 46 48 47 38 19 22 42 62 57 22 20 19 19 16 16 18 19 19 23 26 26 24 23
60 76 68 64 60 97 99 93 64 54 49 62 58 27 26 28 31 36 32 31 35 33 28 33 48 67 75 65 52 25 25 32 49 42 38 20 21 20 17 17 19 25 33 37 48 52 56 37 32
53 64 77 74 59 93 94 95 81 51 45 58 65 36 34 28 26 24 23 22 20 19 22 32 53 57 69 68 64 24 21 20 32 48 29 34 49 23 29 32 45 53 59 66 58 59 55 52 59
62 47 64 74 80 66 65 76 81 46 59 72 76 79 35 28 26 24 19 16 18 19 19 27 39 56 68 84 83 30 20 20 34 37 60 77 63 66 60 52 68 76 70 64 60 67 70 90 96
73 64 59 68 64 75 65 35 48 49 33 80 98 87 89 55 24 23 22 20 18 15 14 15 22 39 80 85 74 64 53 48 69 56 52 54 58 64 60 61 82 80 75 74 78 83 92 98 100
60 60 55 54 60 62 61 52 35 36 66 63 96 97 87 96 60 26 28 24 28 23 29 25 20 44 62 100 93 80 56 31 33 41 50 60 78 81 81 90 86 84 79 85 95 89 100 81 68
55 57 53 52 54 53 55 51 60 66 42 62 76 78 83 90 82 30 23 27 28 61 67 47 28 27 78 96 98 96 94 89 42 30 46 80 81 97 96 95 91 88 96 100 100 96 82 75 58
60 62 56 50 52 59 54 49 60 57 40 34 61 62 52 81 64 50 40 32 35 64 55 37 44 49 58 97 96 81 44 58 54 37 56 83 83 91 98 100 89 97 97 100 100 90 83 65 64
65 55 56 55 55 53 46 50 56 42 44 47 46 66 55 48 46 29 21 18 19 51 45 73 49 36 57 98 92 67 60 45 41 67 73 82 87 91 95 89 86 93 100 100 100 92 66 64 78
67 69 71 68 60 51 38 37 47 46 46 72 68 72 68 51 51 20 19 19 19 21 23 22 46 30 36 43 45 59 65 76 83 86 88 99 99 94 96 99 99 93 100 99 96 82 89 96 73
80 74 85 73 57 44 39 43 46 46 54 53 58 61 74 74 52 54 22 18 18 18 18 19 19 20 20 28 54 69 66 71 74 81 98 98 86 100 90 57 59 81 87 100 94 95 86 84 74
81 70 78 83 68 53 39 35 61 52 61 49 31 22 24 26 40 62 70 49 34 36 38 32 24 23 24 73 75 82 74 78 77 99 85 88 97 69 49 44 63 91 64 85 82 90 93 93 90
Wind_Speed
19 20 24 25 26 30 35 34 36 38 39 37 34 38 30 27 26 23 27 24 25 24 25 26 26 29 27 24 24 21 22 17 18 18 16 16 16 13 13 10 9 12 14 14 13 13 13 14 15
18 18 20 22 25 27 31 31 31 33 38 40 38 33 40 34 28 27 29 30 28 28 29 30 30 31 29 25 23 22 20 17 21 24 24 22 20 15 14 12 11 13 16 16 15 15 15 16 17
17 18 18 19 22 23 29 30 26 27 30 38 37 34 30 35 34 31 29 29 30 30 31 33 31 30 27 27 25 25 24 27 22 23 24 22 21 20 18 16 13 14 17 19 17 17 16 17 17
16 14 15 16 17 18 22 28 27 24 22 29 34 34 32 31 31 35 34 32 31 31 31 31 29 25 24 26 27 28 26 26 25 23 26 22 21 21 22 19 16 17 19 20 19 17 17 18 19
17 12 11 11 10 14 19 22 24 25 22 28 29 31 30 31 31 32 29 32 34 32 32 27 26 24 25 27 29 28 25 28 23 26 27 24 23 24 23 19 17 18 20 20 19 17 17 19 21
15 10 6 5 5 13 17 19 23 22 24 27 29 29 28 30 31 32 32 26 29 28 27 24 25 29 26 31 28 26 21 25 29 27 26 24 24 25 23 17 17 17 16 18 18 19 19 21 23
12 6 2 6 11 17 19 19 23 26 25 26 28 28 28 30 33 24 26 24 27 26 28 26 25 29 32 33 35 28 27 30 31 30 26 23 24 21 17 18 12 13 15 15 18 20 20 21 19
6 2 5 9 12 14 11 13 20 25 25 23 25 26 29 31 26 29 29 23 23 25 28 29 34 32 37 41 33 28 41 32 37 35 25 19 16 14 11 10 11 12 11 15 16 18 14 20 19
3 8 6 9 11 10 12 6 4 13 17 17 19 24 25 31 29 24 28 26 29 29 29 37 40 38 37 52 45 31 43 48 36 26 26 14 12 11 10 9 10 14 13 17 14 19 18 16 14
9 11 11 11 8 5 8 8 7 8 12 11 14 19 22 23 26 28 23 22 29 28 24 28 35 48 35 43 41 41 44 34 20 23 15 14 16 14 12 12 13 15 16 16 16 18 13 12 14
7 7 10 10 5 4 8 8 9 7 4 7 13 18 19 18 21 24 25 24 26 26 25 30 24 33 35 32 28 20 37 18 17 16 18 16 12 12 13 12 16 14 20 24 26 14 12 15 19
7 8 6 7 3 8 12 6 6 5 7 9 14 19 19 17 18 23 19 23 22 23 22 29 22 18 23 25 22 20 20 17 18 15 15 16 15 13 10 12 16 17 14 12 13 14 17 19 23
10 5 10 7 1 5 3 8 6 5 8 14 16 16 15 18 21 21 18 22 14 7 12 18 11 17 17 19 26 19 18 20 19 17 18 16 12 11 10 15 13 10 8 8 13 18 20 23 26
5 4 4 4 5 11 3 3 8 4 6 6 7 10 9 16 18 16 16 17 10 6 12 15 15 15 15 20 25 22 18 17 16 11 8 6 7 9 11 9 6 7 10 14 19 22 25 28 32
7 9 11 10 2 7 5 2 4 5 7 7 9 12 7 19 24 19 16 16 20 25 25 26 25 23 21 19 17 14 14 14 14 11 10 10 10 10 10 8 10 13 16 19 23 27 30 34 37
11 5 4 10 3 5 4 1 5 7 7 9 12 16 18 18 19 20 20 17 19 21 20 19 18 14 13 12 10 9 8 9 11 12 15 13 12 9 11 12 13 16 20 24 28 31 34 38 41
13 7 6 6 4 5 8 6 5 6 8 8 9 11 12 13 16 17 17 17 16 16 15 15 12 11 10 8 7 7 10 12 14 15 13 11 12 11 13 14 17 22 25 28 31 35 38 41 44
15 9 8 7 5 12 11 8 7 7 8 9 7 11 12 13 14 16 16 15 15 14 13 11 10 10 10 11 12 12 14 15 15 13 11 11 12 11 14 18 23 27 29 33 36 39 41 44 46
11 7 7 9 6 9 13 11 7 7 10 8 9 8 10 13 14 15 14 14 15 13 11 9 9 10 12 12 12 10 12 14 14 12 12 10 11 14 19 24 28 31 34 36 40 43 44 46 47
13 7 7 12 9 10 8 10 6 7 9 8 6 7 9 10 11 12 13 13 13 12 12 12 14 14 15 14 12 10 11 11 10 11 12 13 15 19 24 29 32 34 37 39 43 45 46 46 48
11 11 11 9 11 13 12 9 8 8 7 8 6 4 6 5 7 9 10 13 13 12 11 10 11 14 15 13 12 11 12 11 13 15 16 19 22 25 27 32 34 36 38 41 45 45 46 48 46
10 11 14 12 12 10 11 13 12 11 12 8 6 5 7 10 10 10 12 13 12 11 12 13 13 14 16 15 15 15 14 15 18 18 21 25 29 30 34 37 36 37 42 45 47 47 48 49 47
5 8 11 13 13 7 7 8 13 13 14 10 8 11 10 10 12 14 14 14 14 15 15 15 16 16 20 20 17 16 15 16 20 22 23 27 31 34 38 41 41 41 45 46 48 51 46 50 64
7 9 12 11 12 9 10 8 4 8 14 12 12 16 18 18 17 19 20 20 19 19 18 17 18 17 21 19 21 20 17 18 20 23 26 30 31 34 38 40 43 46 48 54 52 50 54 60 55
12 12 13 14 12 11 13 10 5 8 10 9 12 17 20 25 24 24 25 25 25 24 24 19 18 22 23 26 24 19 19 21 22 25 28 30 34 35 37 40 44 50 52 57 52 54 53 58 58
18 17 13 13 15 14 15 11 10 14 14 13 12 12 13 18 20 24 27 30 31 28 25 22 19 22 23 18 19 18 21 23 27 29 30 30 35 37 38 40 49 50 57 57 57 57 56 58 57
22 22 21 22 19 16 18 17 14 16 15 14 14 15 13 12 13 18 22 26 27 28 24 21 19 22 20 19 19 22 25 28 31 32 30 33 35 37 40 43 49 56 60 58 60 59 59 60 60
25 23 21 20 22 20 18 17 14 16 17 13 18 19 17 14 13 15 14 14 16 19 19 20 22 22 23 25 26 27 29 31 33 33 37 36 36 40 43 49 59 62 60 61 59 58 58 61 63
28 26 23 23 23 21 20 18 14 15 17 17 17 20 19 20 19 18 19 20 19 19 20 21 23 25 29 32 30 32 33 35 36 37 36 39 42 42 54 57 60 57 56 56 61 60 62 65 66
27 25 26 27 23 24 26 20 21 17 19 20 20 20 21 23 23 22 22 22 23 23 24 26 26 29 32 32 34 34 37 38 38 36 40 41 48 54 58 58 57 56 58 62 62 63 66 68 72
Wind_Direction
275 270 251 243 242 238 236 236 230 225 225 230 235 242 244 241 243 243 241 240 243 243 239 239 243 251 257 261 268 292 303 276 273 278 279 292 293 297 293 293 267 237 248 252 257 273 286 300 312
273 270 255 244 242 242 237 241 239 232 226 229 232 235 236 241 241 243 245 249 246 247 249 246 247 249 255 272 274 282 276 283 280 275 281 284 286 277 284 261 240 231 243 249 260 275 287 303 315
290 276 262 252 246 242 237 238 243 239 234 230 234 242 238 235 239 243 242 245 248 248 248 248 254 258 266 270 271 273 265 271 277 272 279 276 275 277 278 256 234 232 238 247 261 273 288 297 305
306 283 266 252 249 246 233 237 236 238 232 229 229 233 237 242 246 245 244 247 251 254 254 253 264 269 268 271 269 268 270 272 266 263 275 275 277 280 273 258 238 235 237 250 257 271 288 302 306
317 292 269 258 251 229 232 235 242 240 236 225 226 227 230 234 243 248 246 245 250 254 258 264 265 265 262 267 264 260 273 260 247 261 276 271 272 274 264 255 236 230 239 254 260 278 289 295 302
315 303 268 241 221 201 225 223 229 236 236 228 225 223 226 226 229 239 245 247 248 255 259 258 255 263 252 270 250 264 241 261 241 263 273 278 280 277 256 237 235 227 239 248 264 280 290 287 301
325 309 245 150 168 202 215 225 225 233 237 232 228 228 228 229 238 244 241 250 250 251 255 255 257 255 264 258 239 258 241 251 248 262 268 271 275 262 226 215 216 243 249 260 272 281 288 297 300
339 218 165 157 185 211 225 244 235 239 241 244 238 231 232 240 252 258 248 247 250 251 252 251 253 249 263 256 235 257 242 261 259 260 265 259 198 191 208 217 229 240 259 273 285 293 299 302 304
138 159 169 171 186 209 232 242 243 257 262 263 249 236 246 250 261 250 234 248 252 254 259 262 252 250 246 239 226 243 260 258 270 264 251 193 175 191 207 223 246 258 265 279 287 297 306 306 311
164 193 182 181 178 216 245 249 223 243 240 251 251 245 255 254 253 270 244 252 248 255 249 275 233 233 237 232 234 262 274 249 247 243 155 171 187 196 219 230 254 268 278 281 284 297 298 296 304
192 232 210 199 121 194 254 172 267 288 231 250 247 252 251 254 258 263 243 255 254 252 238 267 267 235 243 230 249 251 245 253 208 185 171 181 197 214 236 251 260 265 269 265 268 280 284 300 311
234 252 194 208 201 246 340 160 228 274 280 261 283 264 256 251 265 242 243 246 251 257 244 238 256 250 236 213 201 226 228 173 155 156 180 194 213 219 225 235 243 258 259 254 264 278 298 307 312
234 274 244 260 57 107 284 351 6 292 266 277 275 271 260 240 254 243 242 227 229 252 232 231 219 214 201 212 217 198 157 162 166 173 182 182 186 217 240 249 255 245 252 268 278 289 298 305 305
194 227 136 199 225 131 171 305 332 311 18 303 232 242 244 237 238 230 186 189 159 147 112 125 158 182 195 124 123 131 135 159 170 176 193 219 225 248 255 238 226 252 261 277 288 301 305 305 305
187 193 180 192 233 297 41 77 326 40 76 96 108 93 128 147 129 121 111 121 126 116 109 114 115 115 118 123 123 131 154 167 188 210 217 225 242 261 229 225 243 260 276 292 301 305 306 306 304
191 202 227 117 95 225 135 196 106 85 92 84 78 85 84 87 113 124 128 129 120 118 118 113 113 122 128 134 134 167 185 202 209 221 227 239 253 262 234 248 270 285 296 299 300 303 303 301 303
190 199 236 144 69 172 166 177 131 109 101 110 117 94 115 133 135 134 132 136 138 133 131 128 129 142 147 157 163 198 213 225 226 231 234 240 254 246 251 270 288 292 295 297 301 301 302 304 303
192 192 225 244 257 183 187 170 178 157 101 120 139 137 138 145 144 142 144 145 148 145 141 134 149 158 175 203 214 224 228 227 235 234 239 233 240 259 279 289 289 292 298 302 304 305 305 303 303
189 192 215 220 219 182 180 155 141 173 126 135 152 151 158 159 161 161 157 161 166 168 174 177 178 189 199 210 223 234 237 231 233 222 224 245 265 280 289 291 295 299 302 304 306 304 302 304 302
211 217 243 232 233 183 201 176 190 203 159 135 140 169 170 176 180 175 173 173 175 180 186 193 197 202 209 223 238 239 219 220 224 239 251 261 279 287 292 297 299 301 305 301 304 305 303 302 302
246 237 218 229 225 209 222 180 200 202 162 136 119 139 185 191 204 202 199 192 184 191 200 204 210 222 232 240 254 251 234 238 246 258 268 273 276 286 293 297 302 300 300 300 306 304 305 304 309
242 230 218 228 216 214 234 223 199 193 181 165 159 195 197 196 205 216 213 208 206 212 224 228 232 235 235 242 254 254 250 254 260 270 273 280 280 283 291 303 297 297 302 304 306 306 306 299 307
216 220 229 206 210 236 270 242 217 210 186 187 199 210 222 224 209 204 215 226 230 237 241 243 243 245 243 243 242 248 256 261 266 279 283 287 285 284 288 295 296 295 300 304 308 312 303 310 301
198 208 219 233 238 246 278 272 215 212 195 211 210 212 225 227 224 223 224 230 237 242 248 253 254 253 248 244 249 234 254 263 276 284 289 291 288 285 291 295 296 293 298 307 309 310 301 301 297
208 224 238 246 258 267 270 273 288 244 223 217 231 225 238 229 237 232 231 236 237 245 257 262 259 254 251 246 246 242 251 265 282 293 297 295 292 279 292 294 293 299 301 306 306 304 301 299 301
210 220 234 255 273 266 283 277 284 279 276 245 229 231 230 228 240 241 247 245 242 250 263 264 258 260 271 276 248 271 281 286 296 304 301 291 288 286 285 289 298 299 303 306 305 303 302 300 300
222 234 248 260 262 270 273 277 275 277 263 271 238 228 238 249 243 244 251 257 264 257 257 261 261 268 282 271 282 288 294 301 304 301 302 292 296 294 291 289 291 298 301 302 303 302 301 301 306
217 232 240 249 263 263 266 270 284 277 272 268 240 241 251 252 249 242 240 247 247 243 249 257 264 280 286 287 291 293 298 302 301 302 303 293 290 285 286 287 296 299 299 303 305 305 307 304 305
231 233 235 240 252 262 274 277 285 268 257 258 249 249 251 252 257 249 243 240 245 255 262 267 275 282 286 288 291 294 300 303 304 301 295 293 284 283 297 298 297 300 302 301 303 304 301 301 303
238 243 248 255 259 269 272 275 277 259 254 255 263 259 257 259 258 255 255 257 257 259 267 273 276 278 283 286 295 298 301 302 300 297 291 284 293 293 297 300 302 300 303 307 306 303 301 304 302